STARLINK-1167, 45071

Orbit data source: Space-Track

STARLINK-1167, 45071 is a payload satellite owned by SpaceX/Seattle (US) in LEO that was launched on Wed, 29 Jan 2020 UTC via an FALCON 9 launch vehicle from the Air Force Eastern Test Range (AFETR). Payload-class satellites include a variety of spacecraft equipped with specific instruments for various scientific and technological missions. These include communications satellites like Starlink; space stations such as the ISS; scientific satellites like the Hubble; Earth observation satellites from companies like Planet Labs, Umbra, and HawkEye 360; GPS; miniature CubeSats for education and research; and military/defense satellites.

Loading next visibility...
Identifier
45071, 2020-006AD
Orbit
LEO
Country
Flag of USUS
Related business
Manufacturer
SpaceX/Seattle
Mission
Operational Commercial Communications
Bus & Motor
STARLINK, Unknown motor
Mass
260 kg wet, ~248 kg dry
Launch date (UTC)
2020-01-29 (6 years ago)
Launch vehicle
FALCON 9
Launch site
Air Force Eastern Test Range (AFETR)
Object type
Payload
Rocket body
Debris
Shape & HBR
Box + 1 Pan, 4.4 m
Radar Cross Section
13.562 m², Large (>1 m²)

Expand to show TLE details & history
Last TLE update: 21 hours ago

TLE from 21 hours ago
0 STARLINK-1167
1 45071U 20006AD  25242.17985447 -.00001725  00000-0 -96993-4 0  9992
2 45071  53.0549  46.3423 0001095  88.3495 271.7619 15.06395128307877
Epoch: 2025-08-30T04:18Z
TLE epoch observation values (Epoch: 2025-08-30T04:18:59.426Z)
Latitude
-0.00004°
Longitude
2.9768°
Altitude
548.082 km
Speed
7.589 km/s
True Right ascension
03h 05m 22s
True Declination
0° 00' 00"
Sunlit
Object was in daylight at epoch
Visualization orbit readout
Latitude
Unknown
Longitude
Unknown
Altitude
Unknown
Speed
Unknown
Apparent Right ascension
Unknown
Apparent Declination
Unknown
Sunlit
N/A
Visualization observer readout
Local Sidereal Time
16:42:11
Azimuth
Unknown
Elevation
Unknown
Doppler factor
Unknown
Orbital elements
Apogee altitude
548.256 km
Perigee altitude
546.739 km
Semi-major axis
6,925.634 km
Eccentricity
0.00011
Inclination
53.0549°
RAAN
46.3423°
Arg. of periapsis
88.3495°
True anomaly
271.74936°
Mean anomaly
271.7619°
Eccentric anomaly
271.75563°
Mean motion
3.76577 °/min
Orbital period
95.6 mins
BSTAR
-0.000096993
Loading maneuver chart data...
Computing Atmospheric mass density...

Documentation

Showing up to 5 results
|